Temp_Advection
nan nan nan nan nan nan nan nan nan nan nan nan nan nan nan nan nan nan nan nan nan nan nan nan nan nan nan nan nan nan nan nan nan nan nan nan nan nan nan nan nan nan nan nan
nan -1 -1 -1 -0 0 0 -0 -1 -2 -1 -0 -0 -0 0 0 -0 -1 -1 -0 -0 0 1 1 1 0 0 1 1 1 0 0 0 0 0 0 0 0 0 0 0 -0 -1 nan
nan -0 -0 0 0 0 0 -0 -0 -2 -3 -1 -1 -0 -1 -0 -0 -1 -0 -0 0 0 0 0 0 0 0 0 1 1 0 0 0 0 0 0 -0 0 0 -0 -0 0 0 nan
nan -0 0 0 0 0 -0 -0 -0 -0 -2 -1 -1 -1 -2 -0 -0 -0 -1 -0 -0 -0 0 0 -0 -1 0 0 1 1 1 1 1 0 -0 0 0 -0 -0 -0 0 -0 0 nan
nan 0 0 0 -0 0 0 -0 0 -0 -1 -1 -1 -1 -1 -0 -0 -0 -0 -1 -1 0 0 -1 -1 -0 1 0 1 1 1 1 0 0 0 -0 0 -0 0 0 0 0 0 nan
nan 0 0 0 0 0 -0 -0 -0 0 -0 -0 -1 -1 -1 -1 -1 -0 -0 -0 -1 1 0 0 1 2 1 0 1 0 1 -0 -0 0 -0 0 -0 -0 -0 -0 -0 0 0 nan
nan 0 0 -0 -0 0 0 -0 0 -0 -0 -1 -1 -1 -2 -1 -1 -0 0 -1 -1 1 -0 1 1 1 -0 -0 0 0 0 -0 -0 -0 -0 0 0 0 -0 -0 0 -0 -0 nan
nan -0 -1 -0 -0 -0 -0 -0 -0 -0 0 -0 -0 -0 -1 -1 -1 -0 0 0 0 1 -0 -1 -1 -1 -1 -0 -0 -0 0 0 -0 -0 -0 -0 0 0 0 0 -0 -1 -1 nan
nan -0 -0 -0 -0 -0 -0 -0 -0 -0 -0 -0 -1 -1 -1 -0 0 0 1 1 -0 1 -0 -1 -1 -0 -1 -1 -0 0 0 0 -0 -0 -0 -0 -0 -0 -0 -0 -0 -0 -0 nan
nan -0 -0 0 -0 0 -0 -0 0 0 -0 -0 -0 -0 -1 -0 0 0 0 0 1 1 -0 -1 -0 -0 -1 0 1 1 0 0 1 1 0 -0 0 0 -0 -0 0 0 -0 nan
nan 0 -0 -0 -0 -0 0 1 0 -0 -0 -0 -0 -0 -1 -3 -1 -0 -0 1 0 0 1 0 0 0 1 1 1 1 1 1 1 0 0 0 0 -0 0 0 -0 0 1 nan
nan 0 -0 -1 -1 -0 0 1 -0 -0 -0 0 -0 -0 -1 -0 -2 -1 0 1 -0 -1 -2 -2 -0 1 2 1 0 1 0 0 0 1 1 -0 -0 0 -1 -0 0 0 0 nan
nan 0 -0 -0 -0 -1 0 0 1 0 -0 0 -0 -0 0 -0 -1 -2 -1 -0 -2 -2 -1 -1 -1 -2 0 1 1 1 0 0 1 1 1 0 0 -1 -0 1 0 -0 -0 nan
nan 0 0 -0 -0 -0 -0 -0 0 0 -0 -0 -0 -1 0 0 -1 -1 -1 -0 -1 -1 -1 -1 -1 -1 -1 -1 1 -0 0 1 1 1 0 -0 -0 0 0 0 0 0 0 nan
nan 0 -0 -0 -0 0 0 0 0 -0 -0 -0 -0 -1 -0 0 0 -0 -2 -0 -1 -0 -0 -1 -1 -1 -1 -1 -0 -0 -0 -0 1 1 -0 0 0 1 1 0 1 1 0 nan
nan -0 -0 -0 -1 -0 0 0 -1 0 -0 -0 -0 -0 -1 -1 -0 -0 -1 0 -0 -0 -1 -1 -0 0 -1 -1 -1 -0 -0 -0 -1 -1 0 1 1 1 1 1 1 1 1 nan
nan -0 -0 -0 -1 -0 -0 -1 -1 -0 -1 -1 -1 -1 -0 0 0 0 -0 0 -0 -1 -2 -0 0 -0 -1 -0 -0 -1 -1 -0 0 0 -1 -1 1 1 1 1 1 0 1 nan
nan -0 0 -0 -1 -0 -1 -1 -0 -0 -0 -1 0 -0 -0 -0 -0 -0 0 -1 -2 -1 -0 0 -0 -1 -1 -0 -0 -1 -1 -1 -1 -0 0 0 0 -1 0 1 0 1 1 nan
nan 0 0 -0 -0 -1 -1 0 -0 -0 -0 -0 0 0 -0 -0 -1 -1 -1 -2 -2 -1 -0 -0 -1 -1 -1 -1 -1 -1 -1 -1 -1 -1 -1 -0 0 0 -1 -1 -0 1 2 nan
nan 0 -0 -0 -0 -0 -1 -0 -0 0 -0 -1 -1 -1 -0 -1 -1 -0 -1 -2 -2 -0 -0 -1 -1 -1 -1 -2 -2 -2 -2 -2 -2 -2 -2 -2 -1 -1 -0 -0 -2 -0 2 nan
nan 0 0 0 -0 -1 -0 -0 -0 0 -0 0 -1 -1 -1 -0 -0 -1 -2 -2 -1 -1 -1 -1 -1 -1 -2 -2 -1 -1 -1 -1 -2 -2 -1 -2 -2 -2 -2 -1 1 -1 -1 nan
nan -0 0 -0 -0 -1 -2 -0 -0 0 0 -1 -1 -1 -1 -1 -1 -2 -2 -1 -1 -1 -1 -1 -1 -2 -2 -2 -1 -1 -1 -1 -1 -1 -1 -1 -1 -1 -2 -2 -1 1 -0 nan
nan 0 -0 -0 -0 0 -2 -1 0 0 -0 -0 -1 -0 -1 -1 -1 -2 -1 -1 -1 -1 -1 -1 -1 -1 -1 -0 -1 -1 -1 -1 -1 -1 -1 -1 -2 -1 -0 -1 -1 -0 0 nan
nan -0 -0 -0 -0 -1 -1 -1 0 0 -0 -1 -0 0 -0 -0 -1 -1 -1 -1 -1 -1 -1 -1 -1 -0 -0 -0 -1 -0 -1 -1 -1 -1 -1 -2 -2 -3 -3 -1 -1 -1 -0 nan
nan -0 0 -0 -0 -1 -1 -0 0 -0 -0 -0 -0 -0 -0 -0 -1 -0 -1 -1 -1 -1 -1 -1 -1 -1 -1 -1 -1 -1 -1 -1 -1 -1 -1 -1 -2 -2 -3 -3 -2 -1 -1 nan
nan nan nan nan nan nan nan nan nan nan nan nan nan nan nan nan nan nan nan nan nan nan nan nan nan nan nan nan nan nan nan nan nan nan nan nan nan nan nan nan nan nan nan nan
Wind_Speed
9 4 6 7 9 12 13 16 17 15 17 17 17 10 14 12 13 14 24 23 30 30 29 28 26 23 21 20 20 15 14 21 21 20 20 20 18 19 24 31 35 44 42 39
5 11 9 8 12 13 10 17 20 18 23 17 19 16 10 8 8 18 26 29 29 35 33 33 31 29 26 23 22 16 14 17 21 22 23 23 25 24 25 29 38 39 40 38
9 3 8 3 9 12 14 17 18 20 27 20 20 11 18 7 7 19 19 37 35 39 38 39 36 33 29 26 24 20 15 17 19 24 22 20 26 27 34 35 40 44 44 44
8 8 6 4 8 6 16 13 16 20 19 8 10 15 20 8 14 16 24 24 28 31 42 43 39 35 32 27 24 21 16 18 19 24 25 25 28 32 36 38 37 41 40 39
5 5 2 5 10 9 11 7 12 12 15 13 20 11 15 12 7 16 19 29 30 25 42 45 42 35 33 27 24 22 18 20 24 27 29 29 26 27 32 37 39 40 42 42
5 5 6 3 1 2 6 9 8 10 8 6 19 13 9 12 13 11 7 23 36 31 41 44 42 36 31 25 23 24 22 22 26 30 31 28 29 28 32 38 41 41 45 44
4 6 5 5 3 2 3 9 3 5 5 7 11 12 15 8 15 15 14 19 34 35 35 43 43 37 32 29 25 25 25 24 28 30 33 34 32 30 32 35 37 42 47 48
5 5 11 9 9 7 5 3 3 4 3 2 12 8 9 14 22 9 11 12 10 26 34 45 43 37 33 29 27 26 27 27 28 32 33 35 34 33 35 35 35 42 50 51
2 6 2 10 7 11 3 7 6 6 3 2 4 8 9 12 20 10 8 9 10 25 32 39 38 37 34 30 29 28 28 28 28 30 34 35 36 34 34 33 34 37 45 50
2 5 6 7 7 12 11 1 2 3 3 3 4 5 4 2 6 7 7 6 16 24 28 32 36 36 34 33 30 30 27 27 28 30 33 36 35 34 35 34 35 37 39 45
5 7 5 7 6 11 6 9 4 4 4 2 1 4 14 19 12 14 11 22 28 25 14 11 14 34 36 35 32 31 30 27 28 29 30 32 36 36 36 37 35 35 34 39
4 4 4 9 10 11 13 13 13 2 2 4 2 4 15 15 15 14 10 20 25 23 29 28 22 16 33 34 32 31 31 29 26 29 30 31 29 35 39 40 39 36 37 38
3 3 4 5 3 5 5 12 16 7 7 3 2 1 8 15 17 23 20 24 31 31 31 31 30 31 6 26 30 31 31 30 28 29 32 33 34 34 36 40 42 41 39 40
4 2 2 6 4 1 4 9 12 12 3 4 6 10 3 9 17 18 27 27 28 28 28 29 31 24 23 20 11 28 29 30 29 28 32 35 37 37 36 35 36 40 42 43
6 5 4 9 12 8 7 8 6 11 12 6 2 10 9 4 11 6 21 17 26 25 27 25 26 27 23 22 18 7 10 32 28 29 31 36 38 38 38 38 38 38 41 43
6 5 5 8 10 13 7 9 8 3 2 8 6 9 10 13 6 6 18 17 20 21 21 23 23 24 25 24 22 16 16 9 24 31 32 33 36 39 42 43 43 42 43 44
4 4 3 4 8 6 5 9 10 12 16 14 9 8 12 7 9 4 18 19 19 17 23 24 23 23 24 26 27 23 16 11 9 8 35 36 37 39 41 44 44 46 47 47
4 6 3 3 7 5 6 6 10 12 8 9 3 6 11 17 25 21 18 18 21 23 22 22 20 21 22 22 21 23 23 19 13 11 9 11 27 41 43 44 46 46 47 48
8 4 2 2 3 9 14 2 3 1 3 7 5 11 12 18 20 19 23 22 23 21 20 18 18 18 20 22 22 21 22 24 23 18 17 17 11 17 31 47 46 46 47 48
14 6 5 2 4 5 10 5 11 2 3 11 16 14 15 20 8 5 30 27 27 22 19 16 16 15 16 20 21 22 23 25 25 26 24 24 24 23 22 32 48 47 46 46
10 6 12 7 4 7 4 4 8 4 2 14 21 19 20 12 9 21 24 25 20 17 16 15 17 17 17 17 18 19 20 21 21 24 28 29 28 26 24 25 36 43 46 44
7 7 5 4 4 7 10 3 3 4 17 21 24 23 23 23 23 25 23 21 17 16 16 17 18 19 19 18 16 16 17 19 21 22 23 26 29 28 25 23 24 32 38 41
3 4 4 7 6 4 20 19 19 19 21 22 22 20 19 19 21 20 15 13 14 15 17 18 18 18 19 19 19 18 19 18 20 22 23 22 23 24 25 22 17 18 21 32
4 7 2 2 11 13 23 21 26 21 26 23 13 13 11 10 10 11 10 11 13 16 19 20 20 21 22 21 20 20 19 18 18 20 21 21 21 21 20 19 14 10 10 12
4 3 3 3 10 17 15 17 15 20 21 16 11 9 9 4 9 6 7 10 12 15 17 18 18 18 18 18 17 17 16 15 15 17 18 18 20 20 20 18 14 13 11 9
7 5 3 4 13 14 9 12 11 14 13 12 14 8 9 8 8 5 7 8 9 12 12 13 12 11 13 13 13 12 12 12 11 11 14 15 15 16 17 19 20 21 16 17
Wind_Direction
200 184 211 210 239 250 266 273 271 281 283 293 282 274 223 221 233 229 207 215 198 197 201 199 198 201 209 223 234 233 207 186 191 196 189 191 187 183 184 198 200 180 175 176
249 221 210 227 253 263 291 290 281 288 282 289 290 265 252 221 219 228 210 211 209 200 194 190 189 193 209 217 232 231 218 200 190 198 189 191 184 182 185 177 176 179 175 175
207 190 180 250 242 258 256 269 279 293 285 294 305 289 287 248 257 271 253 214 215 201 192 185 187 192 202 212 227 230 218 195 197 190 191 185 185 185 184 183 186 184 184 185
227 235 200 248 266 226 249 255 300 307 334 277 317 291 276 254 246 247 250 250 217 203 190 189 189 192 203 212 221 227 222 194 196 189 183 187 191 189 192 192 188 188 191 190
241 126 125 235 254 212 255 300 290 320 300 301 275 268 268 252 253 232 234 233 221 204 186 188 194 202 207 206 215 221 218 201 199 198 197 195 197 202 199 199 196 190 188 192
254 207 179 191 159 150 358 284 290 320 281 246 254 240 249 246 254 270 252 213 214 209 188 195 195 199 200 204 208 215 212 206 198 198 202 201 202 207 204 204 204 205 201 199
309 250 162 122 106 184 311 275 174 206 205 232 200 235 240 238 240 244 283 199 206 207 182 184 187 193 195 203 207 214 215 211 202 200 203 206 209 212 208 207 210 204 200 201
181 301 206 180 189 193 186 195 215 216 204 286 228 236 233 218 244 214 139 110 108 196 178 181 187 191 200 206 212 215 219 215 211 204 204 206 211 210 212 214 217 213 209 206
209 245 299 198 170 179 208 221 213 296 359 270 254 281 282 259 236 188 140 119 104 182 167 175 186 194 200 209 220 221 221 219 217 211 207 208 207 213 214 216 218 225 220 216
343 292 266 201 167 196 206 160 185 151 262 214 248 277 292 307 160 136 122 97 149 155 174 181 189 196 206 218 218 220 229 229 224 219 213 215 213 219 224 225 224 225 228 226
283 208 267 356 196 170 210 234 199 227 228 275 280 257 8 354 354 82 71 73 60 55 110 130 189 203 208 213 217 218 220 229 226 229 220 221 216 215 220 225 227 228 227 228
43 293 249 245 257 201 183 231 205 252 190 200 315 272 350 350 320 8 74 67 70 53 52 56 50 199 203 209 216 222 221 226 234 233 234 230 229 223 220 227 229 229 231 230
344 342 315 298 62 39 227 216 216 240 281 248 254 215 49 343 330 335 352 57 59 54 52 51 59 64 160 204 217 225 229 230 231 232 233 237 236 234 232 228 228 230 233 236
114 249 276 296 320 308 294 235 246 215 219 230 244 290 334 344 311 345 342 67 62 55 48 46 46 46 49 52 232 229 235 238 231 229 232 239 242 243 241 239 235 232 233 236
159 217 243 287 292 266 259 277 233 231 238 225 307 284 289 225 288 306 311 50 62 54 49 42 41 40 29 30 42 38 273 244 245 232 232 239 242 247 249 249 246 242 239 238
335 269 276 298 279 281 271 250 172 246 231 269 308 303 268 244 50 95 259 73 63 54 48 54 45 28 24 18 7 6 32 69 246 247 250 246 244 243 246 247 245 246 247 245
336 314 328 278 296 329 284 236 218 217 178 225 197 209 188 215 129 13 82 69 55 50 69 62 45 26 10 2 360 3 351 338 2 283 251 253 251 247 249 248 245 246 246 243
254 303 292 284 320 259 240 257 223 228 240 233 262 88 106 75 73 59 66 74 67 74 63 52 35 17 13 2 355 357 355 346 323 313 315 283 252 253 251 246 247 251 249 246
210 205 272 223 265 299 313 130 12 247 21 9 243 127 99 114 78 34 24 68 80 74 61 46 28 19 3 2 5 0 351 348 340 327 304 293 298 278 254 251 252 254 248 247
210 194 182 307 263 226 226 317 341 305 84 27 57 61 68 76 67 11 65 70 64 59 45 26 17 9 1 2 4 7 3 355 346 343 326 308 296 304 299 251 255 258 253 251
195 193 216 213 235 284 296 323 329 145 99 62 60 59 59 71 65 53 68 63 65 51 38 17 8 13 8 4 1 3 10 10 6 355 344 329 309 301 296 289 251 250 253 249
194 184 188 184 210 246 323 347 109 134 64 69 62 59 60 53 53 57 62 54 38 27 16 13 7 1 4 358 358 2 5 3 2 3 360 347 329 317 302 299 278 246 245 248
241 176 177 171 204 83 34 68 107 108 87 65 65 65 63 62 55 51 46 38 21 14 1 3 360 359 2 2 358 349 349 352 355 355 354 2 353 332 319 305 296 269 248 234
209 352 245 38 44 61 58 39 77 83 79 86 97 90 81 72 62 49 28 19 6 1 0 356 355 354 353 353 350 349 347 347 354 352 352 351 358 2 349 326 315 304 280 270
4 86 133 340 98 93 65 61 57 69 75 73 78 81 88 85 60 32 18 10 4 358 353 352 354 353 350 346 345 342 342 345 345 348 351 0 6 9 16 12 355 338 5 349
27 357 354 55 342 102 96 71 67 62 50 95 103 89 76 73 67 38 34 15 10 4 2 360 5 15 13 7 2 358 358 2 1 3 6 9 18 31 46 56 61 63 53 45
Height
1442 1451 1456 1455 1453 1451 1451 1452 1449 1439 1430 1434 1424 1423 1414 1410 1413 1416 1416 1418 1420 1422 1426 1430 1435 1440 1441 1446 1448 1450 1451 1454 1457 1461 1464 1466 1469 1472 1475 1480 1483 1488 1494 1500
1445 1446 1445 1446 1447 1448 1451 1454 1446 1435 1428 1432 1427 1417 1412 1407 1407 1408 1410 1411 1413 1416 1421 1425 1430 1433 1436 1440 1444 1447 1449 1451 1455 1458 1461 1465 1469 1473 1477 1480 1484 1489 1494 1499
1440 1437 1437 1441 1444 1446 1449 1451 1448 1449 1430 1421 1430 1426 1415 1403 1401 1401 1402 1403 1406 1408 1414 1420 1424 1427 1431 1434 1439 1443 1446 1448 1451 1455 1459 1463 1468 1472 1476 1480 1484 1489 1493 1497
1433 1430 1433 1440 1446 1448 1451 1450 1452 1458 1460 1456 1444 1444 1416 1403 1399 1396 1395 1396 1398 1401 1406 1412 1418 1423 1425 1430 1435 1440 1442 1445 1449 1451 1456 1460 1463 1468 1471 1476 1481 1486 1491 1496
1432 1431 1435 1442 1443 1444 1449 1452 1454 1461 1464 1455 1438 1443 1414 1401 1398 1392 1387 1388 1390 1393 1399 1405 1411 1415 1421 1425 1430 1436 1440 1442 1446 1449 1452 1457 1462 1467 1471 1474 1480 1485 1489 1493
1428 1425 1429 1434 1438 1444 1451 1454 1451 1458 1464 1457 1438 1439 1414 1399 1391 1384 1378 1377 1380 1386 1391 1397 1405 1411 1417 1421 1426 1431 1436 1438 1443 1446 1449 1453 1457 1462 1466 1471 1475 1480 1485 1490
1427 1427 1427 1432 1443 1448 1456 1456 1454 1457 1456 1448 1416 1423 1404 1383 1378 1376 1374 1371 1374 1380 1386 1393 1400 1407 1413 1416 1421 1426 1431 1435 1438 1442 1445 1449 1454 1458 1462 1467 1471 1476 1479 1484
1436 1440 1425 1429 1432 1439 1447 1453 1446 1442 1442 1429 1405 1402 1390 1374 1370 1372 1368 1368 1371 1376 1381 1388 1395 1402 1407 1410 1415 1422 1427 1432 1435 1438 1442 1446 1450 1454 1458 1463 1467 1471 1475 1479
1430 1428 1414 1414 1420 1431 1435 1444 1441 1444 1444 1440 1419 1391 1374 1368 1363 1369 1367 1368 1370 1375 1380 1387 1393 1397 1402 1406 1409 1415 1422 1427 1431 1434 1438 1441 1446 1449 1452 1457 1462 1466 1470 1475
1425 1432 1412 1409 1417 1423 1426 1429 1439 1450 1443 1437 1409 1405 1397 1372 1366 1364 1368 1371 1374 1378 1381 1385 1390 1395 1398 1400 1405 1411 1416 1421 1426 1430 1434 1437 1442 1446 1450 1454 1457 1460 1464 1469
1426 1430 1420 1413 1416 1419 1430 1432 1445 1442 1437 1428 1425 1411 1407 1398 1379 1371 1376 1376 1380 1381 1383 1388 1389 1391 1394 1398 1402 1407 1413 1417 1422 1425 1430 1433 1436 1441 1445 1448 1452 1455 1459 1462
1427 1427 1426 1418 1408 1407 1414 1425 1434 1438 1429 1424 1425 1420 1408 1402 1396 1384 1377 1381 1381 1384 1386 1389 1390 1390 1394 1397 1401 1404 1409 1412 1416 1420 1425 1429 1433 1435 1437 1439 1442 1448 1450 1454
1429 1429 1430 1415 1411 1410 1418 1418 1424 1434 1431 1430 1427 1416 1408 1407 1396 1390 1389 1384 1384 1390 1390 1392 1393 1397 1401 1400 1398 1402 1404 1407 1411 1414 1418 1423 1426 1428 1430 1433 1436 1440 1442 1444
1426 1429 1431 1434 1431 1433 1428 1422 1423 1429 1429 1421 1422 1412 1405 1409 1404 1397 1396 1393 1393 1395 1393 1396 1397 1397 1401 1405 1406 1406 1401 1405 1409 1411 1413 1415 1418 1422 1425 1428 1430 1432 1434 1437
1426 1431 1426 1426 1422 1418 1422 1416 1424 1425 1427 1424 1413 1414 1403 1410 1407 1408 1403 1399 1395 1398 1398 1398 1401 1402 1403 1404 1405 1408 1407 1406 1405 1409 1409 1409 1411 1414 1417 1419 1421 1425 1427 1428
1425 1428 1423 1423 1415 1411 1410 1409 1412 1419 1421 1418 1413 1414 1409 1403 1405 1406 1406 1400 1399 1401 1402 1403 1401 1403 1404 1406 1406 1406 1406 1406 1409 1406 1404 1406 1407 1408 1409 1411 1414 1417 1418 1420
1433 1430 1426 1425 1413 1410 1416 1402 1398 1402 1406 1411 1410 1398 1396 1399 1405 1403 1404 1404 1404 1404 1405 1406 1403 1404 1405 1405 1405 1404 1403 1404 1404 1402 1403 1403 1402 1401 1401 1403 1406 1407 1408 1412
1433 1431 1430 1433 1423 1420 1400 1389 1387 1391 1390 1389 1390 1393 1399 1401 1403 1408 1407 1405 1405 1405 1404 1404 1406 1407 1407 1407 1404 1402 1401 1400 1399 1400 1399 1398 1398 1398 1395 1395 1396 1396 1399 1401
1425 1429 1438 1436 1430 1412 1395 1382 1390 1390 1393 1385 1384 1390 1397 1402 1405 1408 1407 1406 1407 1407 1407 1406 1409 1409 1409 1406 1404 1401 1398 1395 1394 1393 1392 1391 1391 1390 1390 1387 1386 1386 1389 1391
1417 1421 1433 1436 1426 1426 1402 1389 1384 1383 1402 1395 1392 1395 1399 1402 1412 1416 1412 1411 1411 1410 1408 1408 1410 1410 1409 1407 1404 1401 1398 1394 1391 1388 1387 1385 1384 1383 1381 1380 1381 1379 1380 1380
1416 1423 1425 1431 1431 1418 1394 1391 1386 1398 1415 1402 1400 1402 1403 1408 1414 1417 1413 1412 1412 1412 1411 1411 1409 1408 1409 1407 1405 1402 1399 1396 1392 1389 1385 1382 1378 1375 1373 1371 1371 1373 1372 1373
1410 1420 1424 1430 1432 1428 1398 1394 1398 1407 1405 1405 1405 1408 1410 1411 1413 1413 1413 1413 1412 1412 1411 1410 1408 1407 1407 1406 1405 1402 1399 1396 1392 1388 1383 1379 1375 1370 1367 1364 1362 1362 1364 1364
1409 1403 1411 1412 1413 1405 1403 1399 1403 1405 1407 1409 1411 1412 1413 1413 1413 1415 1417 1416 1416 1415 1414 1412 1410 1409 1408 1406 1403 1400 1398 1395 1391 1387 1383 1377 1373 1368 1364 1361 1357 1356 1357 1356
1406 1407 1409 1404 1409 1409 1411 1413 1411 1414 1410 1415 1419 1417 1417 1417 1417 1418 1418 1418 1417 1416 1413 1412 1411 1409 1406 1403 1402 1399 1396 1393 1389 1387 1382 1379 1373 1368 1362 1359 1356 1353 1352 1353
1408 1408 1408 1409 1412 1414 1419 1417 1419 1417 1414 1419 1421 1420 1419 1419 1419 1419 1418 1417 1417 1416 1414 1412 1410 1408 1406 1405 1402 1400 1397 1394 1390 1387 1383 1379 1376 1373 1365 1358 1354 1353 1354 1354
1414 1416 1410 1417 1419 1412 1421 1421 1417 1418 1423 1420 1421 1421 1420 1419 1421 1421 1420 1419 1418 1417 1416 1414 1413 1411 1409 1406 1403 1400 1397 1393 1390 1386 1384 1381 1378 1377 1373 1369 1362 1356 1355 1358